Time,TemperatureF,DewpointF,PressureIn,WindDirection,WindDirectionDegrees,WindSpeedMPH,WindSpeedGustMPH,Humidity,HourlyPrecipIn,Conditions,Clouds,dailyrainin,SolarRadiationWatts/m^2,SoftwareType,DateUTC
2014-01-29 00:02:00,6.7,-3.2,30.38,WNW,294,0.0,0.0,63,0.00,,CLR,0.00,0.00,VWS V14.01,2014-01-29 06:02:00,
2014-01-29 00:07:00,6.8,-3.1,30.37,WNW,294,0.0,0.0,63,0.00,,CLR,0.00,0.00,VWS V14.01,2014-01-29 06:07:00,
2014-01-29 00:12:00,6.8,-3.1,30.37,WNW,294,0.0,0.0,63,0.00,,CLR,0.00,0.00,VWS V14.01,2014-01-29 06:12:00,
2014-01-29 00:17:00,6.9,-3.0,30.37,WNW,294,0.0,0.0,63,0.00,,CLR,0.00,0.00,VWS V14.01,2014-01-29 06:17:00,
2014-01-29 00:22:00,7.1,-2.8,30.37,WNW,294,0.0,0.0,63,0.00,,CLR,0.00,0.00,VWS V14.01,2014-01-29 06:22:00,
2014-01-29 00:27:00,7.3,-2.3,30.37,WNW,294,0.0,0.0,64,0.00,,CLR,0.00,0.00,VWS V14.01,2014-01-29 06:27:00,
2014-01-29 00:32:00,7.4,-2.2,30.37,WNW,294,0.0,0.0,64,0.00,,CLR,0.00,0.00,VWS V14.01,2014-01-29 06:32:00,
2014-01-29 00:37:00,7.5,-2.1,30.37,WNW,294,0.0,0.0,64,0.00,,CLR,0.00,0.00,VWS V14.01,2014-01-29 06:37:00,
2014-01-29 00:42:00,7.7,-1.6,30.37,WNW,294,0.0,0.0,65,0.00,,CLR,0.00,0.00,VWS V14.01,2014-01-29 06:42:00,
2014-01-29 00:47:00,7.8,-1.5,30.37,WNW,294,0.0,0.0,65,0.00,,CLR,0.00,0.00,VWS V14.01,2014-01-29 06:47:00,
2014-01-29 00:52:00,7.9,0.8,30.37,WNW,294,0.0,0.0,72,0.00,,CLR,0.00,0.00,VWS V14.01,2014-01-29 06:52:00,
2014-01-29 00:57:00,8.0,-1.3,30.37,WNW,294,0.0,0.0,65,0.00,,CLR,0.00,0.00,VWS V14.01,2014-01-29 06:57:00,
2014-01-29 01:02:00,8.0,-1.6,30.37,WNW,294,0.0,0.0,64,0.00,,CLR,0.00,0.00,VWS V14.01,2014-01-29 07:02:00,
2014-01-29 01:07:00,8.0,-1.6,30.37,WNW,294,0.0,0.0,64,0.00,,CLR,0.00,0.00,VWS V14.01,2014-01-29 07:07:00,
2014-01-29 01:12:00,8.0,-1.6,30.36,WNW,294,0.0,0.0,64,0.00,,CLR,0.00,0.00,VWS V14.01,2014-01-29 07:12:00,
2014-01-29 01:17:00,8.0,-1.6,30.36,WNW,294,0.0,0.0,64,0.00,,CLR,0.00,0.00,VWS V14.01,2014-01-29 07:17:00,
2014-01-29 01:22:00,8.0,-1.3,30.36,WNW,294,0.0,0.0,65,0.00,,CLR,0.00,0.00,VWS V14.01,2014-01-29 07:22:00,
2014-01-29 01:27:00,8.0,-1.3,30.36,WNW,294,0.0,0.0,65,0.00,,CLR,0.00,0.00,VWS V14.01,2014-01-29 07:27:00,
2014-01-29 01:32:00,8.0,-1.3,30.35,WNW,294,0.0,0.0,65,0.00,,CLR,0.00,0.00,VWS V14.01,2014-01-29 07:32:00,
2014-01-29 01:37:00,7.9,-1.4,30.35,WNW,294,0.0,0.0,65,0.00,,CLR,0.00,0.00,VWS V14.01,2014-01-29 07:37:00,
2014-01-29 01:42:00,7.9,0.8,30.35,WNW,294,0.0,0.0,72,0.00,,CLR,0.00,0.00,VWS V14.01,2014-01-29 07:42:00,
2014-01-29 01:47:00,7.8,-1.5,30.35,WNW,294,0.0,1.0,65,0.00,,CLR,0.00,0.00,VWS V14.01,2014-01-29 07:47:00,
2014-01-29 01:52:00,7.8,-1.2,30.34,WNW,294,0.0,0.0,66,0.00,,CLR,0.00,0.00,VWS V14.01,2014-01-29 07:52:00,
2014-01-29 01:57:00,7.8,-1.5,30.34,WNW,294,0.0,0.0,65,0.00,,CLR,0.00,0.00,VWS V14.01,2014-01-29 07:57:00,
2014-01-29 02:02:00,7.8,-1.5,30.34,WNW,294,0.0,0.0,65,0.00,,CLR,0.00,0.00,VWS V14.01,2014-01-29 08:02:00,
2014-01-29 02:07:00,7.9,-1.4,30.34,WNW,294,0.0,1.0,65,0.00,,CLR,0.00,0.00,VWS V14.01,2014-01-29 08:07:00,
2014-01-29 02:12:00,7.8,-1.5,30.34,WNW,294,0.0,0.0,65,0.00,,CLR,0.00,0.00,VWS V14.01,2014-01-29 08:12:00,
2014-01-29 02:17:00,7.8,-1.2,30.34,WNW,294,0.0,0.0,66,0.00,,CLR,0.00,0.00,VWS V14.01,2014-01-29 08:17:00,
2014-01-29 02:22:00,7.8,-1.2,30.34,WNW,294,0.0,0.0,66,0.00,,CLR,0.00,0.00,VWS V14.01,2014-01-29 08:22:00,
2014-01-29 02:27:00,7.8,-1.2,30.34,WNW,294,0.0,0.0,66,0.00,,CLR,0.00,0.00,VWS V14.01,2014-01-29 08:27:00,
2014-01-29 02:30:00,7.7,-1.3,30.34,WNW,294,0.0,0.0,66,0.00,,CLR,0.00,0.00,VWS V14.01,2014-01-29 08:30:00,
2014-01-29 02:35:00,7.7,-1.3,30.33,WNW,293,0.0,0.0,66,0.00,,CLR,0.00,0.00,VWS V14.01,2014-01-29 08:35:00,
2014-01-29 02:40:00,7.6,-1.4,30.33,WNW,292,0.0,0.0,66,0.00,,CLR,0.00,0.00,VWS V14.01,2014-01-29 08:40:00,
2014-01-29 02:45:00,7.6,-1.4,30.33,WNW,294,0.0,0.0,66,0.00,,CLR,0.00,0.00,VWS V14.01,2014-01-29 08:45:00,
2014-01-29 02:50:00,7.6,-1.4,30.33,WNW,294,0.0,0.0,66,0.00,,CLR,0.00,0.00,VWS V14.01,2014-01-29 08:50:00,
2014-01-29 02:55:00,7.7,-1.3,30.33,WNW,293,0.0,0.0,66,0.00,,CLR,0.00,0.00,VWS V14.01,2014-01-29 08:55:00,
2014-01-29 03:00:00,7.8,-1.2,30.33,WNW,292,0.0,0.0,66,0.00,,CLR,0.00,0.00,VWS V14.01,2014-01-29 09:00:00,
2014-01-29 03:05:00,7.8,-1.2,30.32,WNW,292,0.0,1.0,66,0.00,,CLR,0.00,0.00,VWS V14.01,2014-01-29 09:05:00,
2014-01-29 03:10:00,7.9,-1.1,30.32,WNW,293,0.0,1.0,66,0.00,,CLR,0.00,0.00,VWS V14.01,2014-01-29 09:10:00,
2014-01-29 03:15:00,8.0,-1.0,30.32,WNW,290,0.0,0.0,66,0.00,,CLR,0.00,0.00,VWS V14.01,2014-01-29 09:15:00,
2014-01-29 03:20:00,8.1,-0.9,30.32,WNW,290,0.0,0.0,66,0.00,,CLR,0.00,0.00,VWS V14.01,2014-01-29 09:20:00,
2014-01-29 03:25:00,8.2,-0.8,30.32,WNW,290,0.0,0.0,66,0.00,,CLR,0.00,0.00,VWS V14.01,2014-01-29 09:25:00,
2014-01-29 03:30:00,8.2,-0.8,30.31,WNW,290,0.0,0.0,66,0.00,,CLR,0.00,0.00,VWS V14.01,2014-01-29 09:30:00,
2014-01-29 03:35:00,8.2,-0.8,30.31,WNW,290,0.0,0.0,66,0.00,,CLR,0.00,0.00,VWS V14.01,2014-01-29 09:35:00,
2014-01-29 03:40:00,8.1,-0.9,30.31,WNW,290,0.0,0.0,66,0.00,,CLR,0.00,0.00,VWS V14.01,2014-01-29 09:40:00,
2014-01-29 03:45:00,8.0,-1.0,30.30,WNW,290,0.0,0.0,66,0.00,,CLR,0.00,0.00,VWS V14.01,2014-01-29 09:45:00,
2014-01-29 03:50:00,8.1,-0.9,30.30,SW,223,0.0,0.0,66,0.00,,CLR,0.00,0.00,VWS V14.01,2014-01-29 09:50:00,
2014-01-29 03:55:00,8.1,-0.9,30.30,SW,222,0.0,2.0,66,0.00,,CLR,0.00,0.00,VWS V14.01,2014-01-29 09:55:00,
2014-01-29 04:00:00,8.2,-0.8,30.29,SW,223,0.0,0.0,66,0.00,,CLR,0.00,0.00,VWS V14.01,2014-01-29 10:00:00,
2014-01-29 04:05:00,8.3,-0.7,30.29,SW,223,0.0,2.0,66,0.00,,CLR,0.00,0.00,VWS V14.01,2014-01-29 10:05:00,
2014-01-29 04:10:00,8.3,-0.7,30.29,SW,223,0.0,0.0,66,0.00,,CLR,0.00,0.00,VWS V14.01,2014-01-29 10:10:00,
2014-01-29 04:15:00,8.3,-0.7,30.28,SW,222,0.0,0.0,66,0.00,,CLR,0.00,0.00,VWS V14.01,2014-01-29 10:15:00,
2014-01-29 04:20:00,8.3,-0.7,30.28,SW,223,0.0,1.0,66,0.00,,CLR,0.00,0.00,VWS V14.01,2014-01-29 10:20:00,
2014-01-29 04:25:00,8.3,-0.7,30.28,SW,223,0.0,0.0,66,0.00,,CLR,0.00,0.00,VWS V14.01,2014-01-29 10:25:00,
2014-01-29 04:30:00,8.3,-0.7,30.28,SW,223,0.0,0.0,66,0.00,,CLR,0.00,0.00,VWS V14.01,2014-01-29 10:30:00,
2014-01-29 04:35:00,8.4,-0.6,30.28,SW,223,0.0,2.0,66,0.00,,CLR,0.00,0.00,VWS V14.01,2014-01-29 10:35:00,
2014-01-29 04:40:00,8.5,-0.5,30.28,SW,223,0.0,0.0,66,0.00,,CLR,0.00,0.00,VWS V14.01,2014-01-29 10:40:00,
2014-01-29 04:45:00,8.4,-0.6,30.28,SW,223,0.0,0.0,66,0.00,,CLR,0.00,0.00,VWS V14.01,2014-01-29 10:45:00,
2014-01-29 04:50:00,8.5,-0.5,30.27,SW,222,0.0,2.0,66,0.00,,CLR,0.00,0.00,VWS V14.01,2014-01-29 10:50:00,
2014-01-29 04:55:00,8.5,-0.5,30.27,SW,222,0.0,0.0,66,0.00,,CLR,0.00,0.00,VWS V14.01,2014-01-29 10:55:00,
2014-01-29 05:00:00,8.5,-0.2,30.27,South,191,0.0,0.0,67,0.00,,CLR,0.00,0.00,VWS V14.01,2014-01-29 11:00:00,
2014-01-29 05:05:00,8.6,-0.4,30.27,South,191,0.0,2.0,66,0.00,,CLR,0.00,0.00,VWS V14.01,2014-01-29 11:05:00,
2014-01-29 05:10:00,8.6,-0.4,30.27,South,191,0.0,0.0,66,0.00,,CLR,0.00,0.00,VWS V14.01,2014-01-29 11:10:00,
2014-01-29 05:15:00,8.6,-0.4,30.26,South,191,0.0,0.0,66,0.00,,CLR,0.00,0.00,VWS V14.01,2014-01-29 11:15:00,
2014-01-29 05:20:00,8.7,-0.3,30.26,South,191,0.0,3.0,66,0.00,,CLR,0.00,0.00,VWS V14.01,2014-01-29 11:20:00,
2014-01-29 05:25:00,8.7,-0.3,30.26,South,191,0.0,2.0,66,0.00,,CLR,0.00,0.00,VWS V14.01,2014-01-29 11:25:00,
2014-01-29 05:30:00,8.7,-0.3,30.26,South,190,2.0,3.0,66,0.00,,CLR,0.00,0.00,VWS V14.01,2014-01-29 11:30:00,
2014-01-29 05:35:00,8.9,-0.1,30.26,South,191,0.0,2.0,66,0.00,,CLR,0.00,0.00,VWS V14.01,2014-01-29 11:35:00,
2014-01-29 05:40:00,8.9,-0.1,30.26,South,191,1.0,1.0,66,0.00,,CLR,0.00,0.00,VWS V14.01,2014-01-29 11:40:00,
2014-01-29 05:45:00,9.0,0.0,30.25,SSW,196,3.0,3.0,66,0.00,,CLR,0.00,0.00,VWS V14.01,2014-01-29 11:45:00,
2014-01-29 05:50:00,9.0,-0.4,30.25,SSW,196,0.0,2.0,65,0.00,,CLR,0.00,0.00,VWS V14.01,2014-01-29 11:50:00,
2014-01-29 05:55:00,9.0,-0.4,30.25,SSW,195,0.0,2.0,65,0.00,,CLR,0.00,0.00,VWS V14.01,2014-01-29 11:55:00,
2014-01-29 06:00:00,9.0,-0.4,30.25,SSW,195,3.0,3.0,65,0.00,,CLR,0.00,0.00,VWS V14.01,2014-01-29 12:00:00,
2014-01-29 06:05:00,9.1,-0.3,30.24,South,191,1.0,3.0,65,0.00,,CLR,0.00,0.00,VWS V14.01,2014-01-29 12:05:00,
2014-01-29 06:10:00,9.1,-0.3,30.24,SSW,192,3.0,3.0,65,0.00,,CLR,0.00,0.00,VWS V14.01,2014-01-29 12:10:00,
2014-01-29 06:15:00,9.1,-0.3,30.24,SSW,202,2.0,3.0,65,0.00,,CLR,0.00,0.00,VWS V14.01,2014-01-29 12:15:00,
2014-01-29 06:20:00,9.1,-0.3,30.24,SSW,194,2.0,3.0,65,0.00,,CLR,0.00,0.00,VWS V14.01,2014-01-29 12:20:00,
2014-01-29 06:25:00,9.1,0.1,30.24,SSW,192,2.0,5.0,66,0.00,,CLR,0.00,0.00,VWS V14.01,2014-01-29 12:25:00,
2014-01-29 06:30:00,9.1,0.1,30.24,South,176,0.0,4.0,66,0.00,,CLR,0.00,0.00,VWS V14.01,2014-01-29 12:30:00,
2014-01-29 06:35:00,9.1,0.1,30.24,South,186,3.0,3.0,66,0.00,,CLR,0.00,0.00,VWS V14.01,2014-01-29 12:35:00,
2014-01-29 06:40:00,9.2,0.2,30.24,South,186,0.0,2.0,66,0.00,,CLR,0.00,0.00,VWS V14.01,2014-01-29 12:40:00,
2014-01-29 06:45:00,9.2,0.2,30.24,South,186,0.0,1.0,66,0.00,,CLR,0.00,0.00,VWS V14.01,2014-01-29 12:45:00,
2014-01-29 06:50:00,9.2,0.5,30.23,South,191,2.0,4.0,67,0.00,,CLR,0.00,0.00,VWS V14.01,2014-01-29 12:50:00,
2014-01-29 06:55:00,9.2,0.2,30.23,South,186,2.0,4.0,66,0.00,,CLR,0.00,0.00,VWS V14.01,2014-01-29 12:55:00,
2014-01-29 07:00:00,9.2,0.2,30.23,South,184,2.0,3.0,66,0.00,,CLR,0.00,0.00,VWS V14.01,2014-01-29 13:00:00,
2014-01-29 07:05:00,9.1,0.4,30.23,South,179,5.0,5.0,67,0.00,,CLR,0.00,0.00,VWS V14.01,2014-01-29 13:05:00,
2014-01-29 07:10:00,9.0,0.3,30.23,SW,225,4.0,4.0,67,0.00,,CLR,0.00,0.00,VWS V14.01,2014-01-29 13:10:00,
2014-01-29 07:15:00,8.9,0.2,30.23,South,190,4.0,5.0,67,0.00,,CLR,0.00,0.00,VWS V14.01,2014-01-29 13:15:00,
2014-01-29 07:20:00,8.7,0.0,30.23,SSE,167,4.0,7.0,67,0.00,,CLR,0.00,0.00,VWS V14.01,2014-01-29 13:20:00,
2014-01-29 07:25:00,8.7,0.3,30.22,SSE,160,5.0,5.0,68,0.00,,CLR,0.00,0.00,VWS V14.01,2014-01-29 13:25:00,
2014-01-29 07:30:00,8.7,0.3,30.22,South,172,4.0,6.0,68,0.00,,CLR,0.00,0.00,VWS V14.01,2014-01-29 13:30:00,
2014-01-29 07:35:00,8.7,0.3,30.22,South,173,4.0,6.0,68,0.00,,CLR,0.00,0.00,VWS V14.01,2014-01-29 13:35:00,
2014-01-29 07:40:00,8.6,0.2,30.22,SSE,164,7.0,7.0,68,0.00,,CLR,0.00,0.00,VWS V14.01,2014-01-29 13:40:00,
2014-01-29 07:45:00,8.6,0.2,30.22,South,169,1.0,5.0,68,0.00,,CLR,0.00,0.00,VWS V14.01,2014-01-29 13:45:00,
2014-01-29 07:50:00,8.7,0.3,30.22,South,173,6.0,6.0,68,0.00,,CLR,0.00,0.00,VWS V14.01,2014-01-29 13:50:00,
2014-01-29 07:55:00,8.7,0.6,30.22,South,173,4.0,4.0,69,0.00,,CLR,0.00,0.00,VWS V14.01,2014-01-29 13:55:00,
2014-01-29 08:00:00,8.7,0.6,30.22,South,175,2.0,2.0,69,0.00,,CLR,0.00,0.00,VWS V14.01,2014-01-29 14:00:00,
2014-01-29 08:05:00,8.9,0.8,30.21,South,176,2.0,4.0,69,0.00,,CLR,0.00,0.00,VWS V14.01,2014-01-29 14:05:00,
2014-01-29 08:10:00,9.1,1.0,30.22,SW,215,3.0,4.0,69,0.00,,CLR,0.00,0.00,VWS V14.01,2014-01-29 14:10:00,
2014-01-29 08:15:00,9.5,1.4,30.21,SSW,198,3.0,4.0,69,0.00,,CLR,0.00,0.00,VWS V14.01,2014-01-29 14:15:00,
2014-01-29 08:20:00,9.9,2.1,30.22,South,190,1.0,2.0,70,0.00,,CLR,0.00,0.00,VWS V14.01,2014-01-29 14:20:00,
2014-01-29 08:25:00,10.2,2.4,30.22,SSW,195,3.0,4.0,70,0.00,,CLR,0.00,0.00,VWS V14.01,2014-01-29 14:25:00,
2014-01-29 08:30:00,10.7,2.9,30.21,SSW,192,4.0,4.0,70,0.00,,CLR,0.00,12.00,VWS V14.01,2014-01-29 14:30:00,
2014-01-29 08:35:00,11.1,3.2,30.22,SSW,197,2.0,3.0,70,0.00,,CLR,0.00,25.00,VWS V14.01,2014-01-29 14:35:00,
2014-01-29 08:40:00,11.5,3.3,30.21,SSW,194,6.0,8.0,69,0.00,,CLR,0.00,42.00,VWS V14.01,2014-01-29 14:40:00,
2014-01-29 08:45:00,11.8,3.6,30.21,SSE,167,1.0,6.0,69,0.00,,CLR,0.00,60.00,VWS V14.01,2014-01-29 14:45:00,
2014-01-29 08:50:00,12.2,4.0,30.21,South,173,2.0,5.0,69,0.00,,CLR,0.00,77.00,VWS V14.01,2014-01-29 14:50:00,
2014-01-29 08:55:00,12.6,4.4,30.21,South,175,4.0,6.0,69,0.00,,CLR,0.00,97.00,VWS V14.01,2014-01-29 14:55:00,
2014-01-29 09:00:00,13.1,7.0,30.21,SSW,210,2.0,7.0,76,0.00,,CLR,0.00,116.00,VWS V14.01,2014-01-29 15:00:00,
2014-01-29 09:05:00,13.5,5.2,30.20,SW,225,8.0,9.0,69,0.00,,CLR,0.00,132.00,VWS V14.01,2014-01-29 15:05:00,
2014-01-29 09:10:00,13.9,5.6,30.20,SSE,165,0.0,5.0,69,0.00,,CLR,0.00,151.00,VWS V14.01,2014-01-29 15:10:00,
2014-01-29 09:15:00,14.5,6.2,30.20,SSW,197,3.0,9.0,69,0.00,,CLR,0.00,171.00,VWS V14.01,2014-01-29 15:15:00,
2014-01-29 09:20:00,15.0,6.7,30.21,South,179,4.0,4.0,69,0.00,,CLR,0.00,188.00,VWS V14.01,2014-01-29 15:20:00,
2014-01-29 09:25:00,15.6,6.9,30.21,South,186,1.0,3.0,68,0.00,,CLR,0.00,206.00,VWS V14.01,2014-01-29 15:25:00,
2014-01-29 09:30:00,16.0,7.0,30.21,South,178,5.0,11.0,67,0.00,,CLR,0.00,223.00,VWS V14.01,2014-01-29 15:30:00,
2014-01-29 09:35:00,16.4,7.4,30.20,South,188,5.0,14.0,67,0.00,,CLR,0.00,241.00,VWS V14.01,2014-01-29 15:35:00,
2014-01-29 09:40:00,16.7,7.3,30.21,SSW,192,3.0,6.0,66,0.00,,CLR,0.00,251.00,VWS V14.01,2014-01-29 15:40:00,
2014-01-29 09:45:00,17.1,7.7,30.20,SSE,168,4.0,8.0,66,0.00,,CLR,0.00,265.00,VWS V14.01,2014-01-29 15:45:00,
2014-01-29 09:50:00,17.7,8.3,30.20,South,180,0.0,4.0,66,0.00,,CLR,0.00,278.00,VWS V14.01,2014-01-29 15:50:00,
2014-01-29 09:55:00,18.6,9.1,30.20,South,174,2.0,7.0,66,0.00,,CLR,0.00,290.00,VWS V14.01,2014-01-29 15:55:00,
2014-01-29 10:00:00,19.4,9.6,30.20,WSW,240,6.0,7.0,65,0.00,,CLR,0.00,301.00,VWS V14.01,2014-01-29 16:00:00,
2014-01-29 10:05:00,20.2,10.0,30.19,SSW,208,2.0,9.0,64,0.00,,CLR,0.00,315.00,VWS V14.01,2014-01-29 16:05:00,
2014-01-29 10:10:00,21.1,10.5,30.19,SSW,198,4.0,10.0,63,0.00,,CLR,0.00,325.00,VWS V14.01,2014-01-29 16:10:00,
2014-01-29 10:15:00,21.9,10.9,30.19,South,180,9.0,9.0,62,0.00,,CLR,0.00,336.00,VWS V14.01,2014-01-29 16:15:00,
2014-01-29 10:20:00,22.7,11.3,30.19,South,190,5.0,7.0,61,0.00,,CLR,0.00,348.00,VWS V14.01,2014-01-29 16:20:00,
2014-01-29 10:25:00,23.6,11.8,30.18,South,171,8.0,8.0,60,0.00,,CLR,0.00,359.00,VWS V14.01,2014-01-29 16:25:00,
2014-01-29 10:30:00,24.3,12.1,30.18,South,188,4.0,7.0,59,0.00,,CLR,0.00,369.00,VWS V14.01,2014-01-29 16:30:00,
2014-01-29 10:35:00,25.1,12.8,30.18,South,183,3.0,9.0,59,0.00,,CLR,0.00,381.00,VWS V14.01,2014-01-29 16:35:00,
2014-01-29 10:40:00,25.9,12.8,30.18,South,180,5.0,8.0,57,0.00,,CLR,0.00,392.00,VWS V14.01,2014-01-29 16:40:00,
2014-01-29 10:45:00,26.4,13.2,30.17,South,171,2.0,4.0,57,0.00,,CLR,0.00,401.00,VWS V14.01,2014-01-29 16:45:00,
2014-01-29 10:50:00,27.3,13.7,30.17,SSW,213,4.0,8.0,56,0.00,,CLR,0.00,410.00,VWS V14.01,2014-01-29 16:50:00,
2014-01-29 10:55:00,28.3,14.2,30.17,SSW,194,9.0,13.0,55,0.00,,CLR,0.00,418.00,VWS V14.01,2014-01-29 16:55:00,
2014-01-29 11:00:00,28.9,14.4,30.17,WSW,258,6.0,8.0,54,0.00,,CLR,0.00,425.00,VWS V14.01,2014-01-29 17:00:00,
2014-01-29 11:05:00,29.4,14.4,30.17,WNW,284,4.0,7.0,53,0.00,,CLR,0.00,434.00,VWS V14.01,2014-01-29 17:05:00,
2014-01-29 11:10:00,29.8,14.8,30.16,WSW,238,4.0,6.0,53,0.00,,CLR,0.00,443.00,VWS V14.01,2014-01-29 17:10:00,
2014-01-29 11:15:00,30.6,15.1,30.16,SSW,208,6.0,8.0,52,0.00,,CLR,0.00,452.00,VWS V14.01,2014-01-29 17:15:00,
2014-01-29 11:19:00,31.1,15.1,30.16,SW,229,7.0,11.0,51,0.00,,CLR,0.00,457.00,VWS V14.01,2014-01-29 17:19:00,
2014-01-29 11:24:00,31.4,14.9,30.16,SSE,162,11.0,17.0,50,0.00,,CLR,0.00,462.00,VWS V14.01,2014-01-29 17:24:00,
2014-01-29 11:29:00,31.8,15.3,30.15,SW,222,5.0,12.0,50,0.00,,CLR,0.00,468.00,VWS V14.01,2014-01-29 17:29:00,
2014-01-29 11:34:00,32.2,15.2,30.14,SW,236,7.0,7.0,49,0.00,,CLR,0.00,475.00,VWS V14.01,2014-01-29 17:34:00,
2014-01-29 11:39:00,33.0,15.9,30.14,SSW,207,6.0,7.0,49,0.00,,CLR,0.00,478.00,VWS V14.01,2014-01-29 17:39:00,
2014-01-29 11:44:00,33.7,15.6,30.14,West,280,9.0,10.0,47,0.00,,CLR,0.00,485.00,VWS V14.01,2014-01-29 17:44:00,
2014-01-29 11:49:00,34.0,15.4,30.13,WSW,245,3.0,6.0,46,0.00,,CLR,0.00,489.00,VWS V14.01,2014-01-29 17:49:00,
2014-01-29 11:54:00,34.4,15.8,30.13,SW,217,7.0,11.0,46,0.00,,CLR,0.00,494.00,VWS V14.01,2014-01-29 17:54:00,
2014-01-29 11:59:00,35.0,15.8,30.12,WNW,298,5.0,9.0,45,0.00,,CLR,0.00,496.00,VWS V14.01,2014-01-29 17:59:00,
2014-01-29 12:04:00,35.3,15.6,30.12,South,180,4.0,12.0,44,0.00,,CLR,0.00,501.00,VWS V14.01,2014-01-29 18:04:00,
2014-01-29 12:09:00,35.4,15.7,30.12,SE,138,11.0,11.0,44,0.00,,CLR,0.00,503.00,VWS V14.01,2014-01-29 18:09:00,
2014-01-29 12:14:00,35.9,15.6,30.11,South,189,8.0,12.0,43,0.00,,CLR,0.00,508.00,VWS V14.01,2014-01-29 18:14:00,
2014-01-29 12:19:00,36.5,16.1,30.10,SSE,160,8.0,10.0,43,0.00,,CLR,0.00,510.00,VWS V14.01,2014-01-29 18:19:00,
2014-01-29 12:24:00,36.9,16.5,30.10,South,175,9.0,9.0,43,0.00,,CLR,0.00,512.00,VWS V14.01,2014-01-29 18:24:00,
2014-01-29 12:29:00,37.2,16.2,30.09,SSE,156,1.0,4.0,42,0.00,,CLR,0.00,512.00,VWS V14.01,2014-01-29 18:29:00,
2014-01-29 12:34:00,37.5,16.0,30.09,SSW,195,6.0,11.0,41,0.00,,CLR,0.00,513.00,VWS V14.01,2014-01-29 18:34:00,
2014-01-29 12:39:00,37.9,16.3,30.08,SSE,167,8.0,10.0,41,0.00,,CLR,0.00,513.00,VWS V14.01,2014-01-29 18:39:00,
2014-01-29 12:44:00,38.6,16.4,30.08,SSE,163,8.0,9.0,40,0.00,,CLR,0.00,512.00,VWS V14.01,2014-01-29 18:44:00,
2014-01-29 12:49:00,39.1,16.2,30.08,South,185,17.0,17.0,39,0.00,,CLR,0.00,513.00,VWS V14.01,2014-01-29 18:49:00,
2014-01-29 12:54:00,39.1,16.2,30.07,SSE,159,8.0,11.0,39,0.00,,CLR,0.00,513.00,VWS V14.01,2014-01-29 18:54:00,
2014-01-29 12:59:00,39.6,16.1,30.07,South,171,15.0,15.0,38,0.00,,CLR,0.00,512.00,VWS V14.01,2014-01-29 18:59:00,
2014-01-29 13:04:00,39.9,16.4,30.06,SSW,213,7.0,8.0,38,0.00,,CLR,0.00,510.00,VWS V14.01,2014-01-29 19:04:00,
2014-01-29 13:09:00,40.1,15.9,30.06,South,190,3.0,8.0,37,0.00,,CLR,0.00,510.00,VWS V14.01,2014-01-29 19:09:00,
2014-01-29 13:14:00,40.6,16.4,30.05,SSW,192,3.0,6.0,37,0.00,,CLR,0.00,506.00,VWS V14.01,2014-01-29 19:14:00,
2014-01-29 13:19:00,41.0,17.4,30.05,SSE,163,15.0,15.0,38,0.00,,CLR,0.00,503.00,VWS V14.01,2014-01-29 19:19:00,
2014-01-29 13:24:00,41.3,15.7,30.04,South,169,6.0,9.0,35,0.00,,CLR,0.00,501.00,VWS V14.01,2014-01-29 19:24:00,
2014-01-29 13:29:00,41.5,15.9,30.03,SW,223,4.0,13.0,35,0.00,,CLR,0.00,499.00,VWS V14.01,2014-01-29 19:29:00,
2014-01-29 13:34:00,41.5,15.9,30.03,SE,141,10.0,10.0,35,0.00,,CLR,0.00,496.00,VWS V14.01,2014-01-29 19:34:00,
2014-01-29 13:39:00,41.5,15.9,30.03,SSW,202,8.0,9.0,35,0.00,,CLR,0.00,490.00,VWS V14.01,2014-01-29 19:39:00,
2014-01-29 13:44:00,41.9,15.6,30.02,SSW,198,12.0,12.0,34,0.00,,CLR,0.00,485.00,VWS V14.01,2014-01-29 19:44:00,
2014-01-29 13:49:00,42.3,15.9,30.02,South,171,10.0,10.0,34,0.00,,CLR,0.00,482.00,VWS V14.01,2014-01-29 19:49:00,
2014-01-29 13:54:00,42.6,16.2,30.01,South,182,10.0,16.0,34,0.00,,CLR,0.00,475.00,VWS V14.01,2014-01-29 19:54:00,
2014-01-29 13:59:00,42.7,16.3,30.01,SSW,213,1.0,8.0,34,0.00,,CLR,0.00,469.00,VWS V14.01,2014-01-29 19:59:00,
2014-01-29 14:04:00,42.9,15.8,30.01,SSW,213,6.0,13.0,33,0.00,,CLR,0.00,464.00,VWS V14.01,2014-01-29 20:04:00,
2014-01-29 14:09:00,43.0,16.6,30.00,SW,231,9.0,9.0,34,0.00,,CLR,0.00,459.00,VWS V14.01,2014-01-29 20:09:00,
2014-01-29 14:14:00,43.4,16.2,30.00,SSE,164,11.0,11.0,33,0.00,,CLR,0.00,454.00,VWS V14.01,2014-01-29 20:14:00,
2014-01-29 14:19:00,43.5,16.3,30.00,SW,229,8.0,10.0,33,0.00,,CLR,0.00,445.00,VWS V14.01,2014-01-29 20:19:00,
2014-01-29 14:24:00,43.8,16.6,29.99,SSE,168,8.0,8.0,33,0.00,,CLR,0.00,438.00,VWS V14.01,2014-01-29 20:24:00,
2014-01-29 14:29:00,43.9,16.0,29.99,West,265,9.0,10.0,32,0.00,,CLR,0.00,429.00,VWS V14.01,2014-01-29 20:29:00,
2014-01-29 14:34:00,44.0,16.0,29.98,South,169,4.0,6.0,32,0.00,,CLR,0.00,420.00,VWS V14.01,2014-01-29 20:34:00,
2014-01-29 14:39:00,44.2,16.2,29.98,WSW,254,7.0,7.0,32,0.00,,CLR,0.00,415.00,VWS V14.01,2014-01-29 20:39:00,
2014-01-29 14:44:00,44.4,15.7,29.98,SSW,207,6.0,12.0,31,0.00,,CLR,0.00,404.00,VWS V14.01,2014-01-29 20:44:00,
2014-01-29 14:49:00,44.5,15.8,29.97,SSW,194,5.0,5.0,31,0.00,,CLR,0.00,396.00,VWS V14.01,2014-01-29 20:49:00,
2014-01-29 14:54:00,45.0,16.9,29.97,South,184,4.0,5.0,32,0.00,,CLR,0.00,385.00,VWS V14.01,2014-01-29 20:54:00,
2014-01-29 14:59:00,45.1,16.3,29.97,South,175,6.0,6.0,31,0.00,,CLR,0.00,376.00,VWS V14.01,2014-01-29 20:59:00,
2014-01-29 15:04:00,45.1,16.3,29.97,SE,143,9.0,11.0,31,0.00,,CLR,0.00,364.00,VWS V14.01,2014-01-29 21:04:00,
2014-01-29 15:09:00,45.0,15.4,29.97,SW,219,9.0,18.0,30,0.00,,CLR,0.00,355.00,VWS V14.01,2014-01-29 21:09:00,
2014-01-29 15:14:00,44.9,15.4,29.96,SE,135,7.0,15.0,30,0.00,,CLR,0.00,346.00,VWS V14.01,2014-01-29 21:14:00,
2014-01-29 15:19:00,44.7,15.9,29.96,South,180,9.0,10.0,31,0.00,,CLR,0.00,334.00,VWS V14.01,2014-01-29 21:19:00,
2014-01-29 15:24:00,44.9,16.1,29.96,South,184,5.0,15.0,31,0.00,,CLR,0.00,322.00,VWS V14.01,2014-01-29 21:24:00,
2014-01-29 15:29:00,45.0,15.4,29.95,SW,226,10.0,12.0,30,0.00,,CLR,0.00,309.00,VWS V14.01,2014-01-29 21:29:00,
2014-01-29 15:34:00,45.2,16.4,29.94,SSE,152,8.0,14.0,31,0.00,,CLR,0.00,299.00,VWS V14.01,2014-01-29 21:34:00,
2014-01-29 15:39:00,45.2,16.4,29.94,SSE,157,8.0,14.0,31,0.00,,CLR,0.00,288.00,VWS V14.01,2014-01-29 21:39:00,
2014-01-29 15:44:00,45.1,15.5,29.93,SW,214,10.0,14.0,30,0.00,,CLR,0.00,276.00,VWS V14.01,2014-01-29 21:44:00,
2014-01-29 15:49:00,45.5,15.9,29.93,SSE,156,9.0,10.0,30,0.00,,CLR,0.00,262.00,VWS V14.01,2014-01-29 21:49:00,
2014-01-29 15:54:00,45.6,16.0,29.93,SW,236,8.0,14.0,30,0.00,,CLR,0.00,250.00,VWS V14.01,2014-01-29 21:54:00,
2014-01-29 15:59:00,45.6,16.0,29.93,SW,226,3.0,11.0,30,0.00,,CLR,0.00,236.00,VWS V14.01,2014-01-29 21:59:00,
2014-01-29 16:04:00,45.7,16.1,29.93,South,172,15.0,15.0,30,0.00,,CLR,0.00,214.00,VWS V14.01,2014-01-29 22:04:00,
2014-01-29 16:09:00,45.9,15.4,29.93,SSW,192,11.0,15.0,29,0.00,,CLR,0.00,197.00,VWS V14.01,2014-01-29 22:09:00,
2014-01-29 16:14:00,45.9,15.4,29.93,South,190,13.0,22.0,29,0.00,,CLR,0.00,178.00,VWS V14.01,2014-01-29 22:14:00,
2014-01-29 16:19:00,46.0,15.5,29.93,SSW,202,8.0,14.0,29,0.00,,CLR,0.00,160.00,VWS V14.01,2014-01-29 22:19:00,
2014-01-29 16:24:00,45.9,15.4,29.92,South,186,9.0,12.0,29,0.00,,CLR,0.00,139.00,VWS V14.01,2014-01-29 22:24:00,
2014-01-29 16:29:00,46.0,15.5,29.92,SE,140,7.0,13.0,29,0.00,,CLR,0.00,120.00,VWS V14.01,2014-01-29 22:29:00,
2014-01-29 16:34:00,45.9,15.4,29.92,SSW,213,12.0,12.0,29,0.00,,CLR,0.00,100.00,VWS V14.01,2014-01-29 22:34:00,
2014-01-29 16:39:00,45.8,15.4,29.92,SSW,211,10.0,14.0,29,0.00,,CLR,0.00,83.00,VWS V14.01,2014-01-29 22:39:00,
2014-01-29 16:44:00,45.8,15.4,29.92,SW,224,5.0,12.0,29,0.00,,CLR,0.00,67.00,VWS V14.01,2014-01-29 22:44:00,
2014-01-29 16:49:00,45.6,15.2,29.92,SW,234,4.0,24.0,29,0.00,,CLR,0.00,46.00,VWS V14.01,2014-01-29 22:49:00,
2014-01-29 16:54:00,45.5,15.1,29.92,SSE,167,15.0,17.0,29,0.00,,CLR,0.00,32.00,VWS V14.01,2014-01-29 22:54:00,
2014-01-29 16:59:00,45.4,15.0,29.92,South,184,7.0,10.0,29,0.00,,CLR,0.00,16.00,VWS V14.01,2014-01-29 22:59:00,
2014-01-29 17:04:00,45.1,15.5,29.91,SSE,167,8.0,11.0,30,0.00,,CLR,0.00,0.00,VWS V14.01,2014-01-29 23:04:00,
2014-01-29 17:09:00,44.9,15.4,29.91,WSW,250,8.0,9.0,30,0.00,,CLR,0.00,0.00,VWS V14.01,2014-01-29 23:09:00,
2014-01-29 17:14:00,44.7,15.2,29.91,South,169,6.0,9.0,30,0.00,,CLR,0.00,0.00,VWS V14.01,2014-01-29 23:14:00,
2014-01-29 17:19:00,44.5,15.8,29.90,South,178,11.0,11.0,31,0.00,,CLR,0.00,0.00,VWS V14.01,2014-01-29 23:19:00,
2014-01-29 17:24:00,44.2,15.5,29.90,South,187,5.0,10.0,31,0.00,,CLR,0.00,0.00,VWS V14.01,2014-01-29 23:24:00,
2014-01-29 17:29:00,43.8,15.1,29.89,SSW,210,7.0,12.0,31,0.00,,CLR,0.00,0.00,VWS V14.01,2014-01-29 23:29:00,
2014-01-29 17:34:00,43.6,15.7,29.89,SSE,164,6.0,8.0,32,0.00,,CLR,0.00,0.00,VWS V14.01,2014-01-29 23:34:00,
2014-01-29 17:39:00,43.4,15.5,29.88,SSW,194,4.0,11.0,32,0.00,,CLR,0.00,0.00,VWS V14.01,2014-01-29 23:39:00,
2014-01-29 17:44:00,43.3,15.4,29.88,South,171,7.0,12.0,32,0.00,,CLR,0.00,0.00,VWS V14.01,2014-01-29 23:44:00,
2014-01-29 17:49:00,43.1,15.3,29.88,SSE,166,7.0,12.0,32,0.00,,CLR,0.00,0.00,VWS V14.01,2014-01-29 23:49:00,
2014-01-29 17:54:00,42.9,15.1,29.88,SW,236,9.0,11.0,32,0.00,,CLR,0.00,0.00,VWS V14.01,2014-01-29 23:54:00,
2014-01-29 17:59:00,42.7,15.6,29.88,South,183,5.0,6.0,33,0.00,,CLR,0.00,0.00,VWS V14.01,2014-01-29 23:59:00,
2014-01-29 18:04:00,42.4,15.4,29.88,South,188,2.0,7.0,33,0.00,,CLR,0.00,0.00,VWS V14.01,2014-01-30 00:04:00,
2014-01-29 18:09:00,42.1,15.1,29.88,South,178,2.0,6.0,33,0.00,,CLR,0.00,0.00,VWS V14.01,2014-01-30 00:09:00,
2014-01-29 18:14:00,41.8,14.8,29.88,SSE,168,8.0,9.0,33,0.00,,CLR,0.00,0.00,VWS V14.01,2014-01-30 00:14:00,
2014-01-29 18:19:00,41.6,15.3,29.88,SW,221,1.0,7.0,34,0.00,,CLR,0.00,0.00,VWS V14.01,2014-01-30 00:19:00,
2014-01-29 18:24:00,41.5,15.2,29.88,SSE,159,2.0,11.0,34,0.00,,CLR,0.00,0.00,VWS V14.01,2014-01-30 00:24:00,
2014-01-29 18:29:00,41.2,15.0,29.87,SSW,194,4.0,10.0,34,0.00,,CLR,0.00,0.00,VWS V14.01,2014-01-30 00:29:00,
2014-01-29 18:34:00,41.0,14.8,29.87,SSW,207,2.0,7.0,34,0.00,,CLR,0.00,0.00,VWS V14.01,2014-01-30 00:34:00,
2014-01-29 18:39:00,40.6,15.1,29.87,South,191,5.0,6.0,35,0.00,,CLR,0.00,0.00,VWS V14.01,2014-01-30 00:39:00,
2014-01-29 18:44:00,40.5,15.0,29.86,South,179,6.0,14.0,35,0.00,,CLR,0.00,0.00,VWS V14.01,2014-01-30 00:44:00,
2014-01-29 18:49:00,40.4,14.9,29.86,South,177,7.0,12.0,35,0.00,,CLR,0.00,0.00,VWS V14.01,2014-01-30 00:49:00,
2014-01-29 18:54:00,40.3,14.8,29.86,SSW,207,9.0,12.0,35,0.00,,CLR,0.00,0.00,VWS V14.01,2014-01-30 00:54:00,
2014-01-29 18:59:00,40.2,15.4,29.85,South,169,10.0,10.0,36,0.00,,CLR,0.00,0.00,VWS V14.01,2014-01-30 00:59:00,
2014-01-29 19:04:00,40.0,15.2,29.85,SE,142,13.0,13.0,36,0.00,,CLR,0.00,0.00,VWS V14.01,2014-01-30 01:04:00,
2014-01-29 19:09:00,39.9,15.1,29.84,South,171,10.0,10.0,36,0.00,,CLR,0.00,0.00,VWS V14.01,2014-01-30 01:09:00,
2014-01-29 19:14:00,39.8,15.0,29.84,WSW,242,8.0,8.0,36,0.00,,CLR,0.00,0.00,VWS V14.01,2014-01-30 01:14:00,
2014-01-29 19:19:00,39.7,14.9,29.84,South,187,6.0,12.0,36,0.00,,CLR,0.00,0.00,VWS V14.01,2014-01-30 01:19:00,
2014-01-29 19:24:00,39.8,15.0,29.84,SSE,161,12.0,12.0,36,0.00,,CLR,0.00,0.00,VWS V14.01,2014-01-30 01:24:00,
2014-01-29 19:29:00,39.7,14.9,29.83,SW,229,7.0,12.0,36,0.00,,CLR,0.00,0.00,VWS V14.01,2014-01-30 01:29:00,
2014-01-29 19:34:00,39.5,14.8,29.84,SSW,201,6.0,17.0,36,0.00,,CLR,0.00,0.00,VWS V14.01,2014-01-30 01:34:00,
2014-01-29 19:39:00,39.3,14.6,29.83,SE,144,7.0,14.0,36,0.00,,CLR,0.00,0.00,VWS V14.01,2014-01-30 01:39:00,
2014-01-29 19:44:00,39.3,14.6,29.84,SSW,192,6.0,7.0,36,0.00,,CLR,0.00,0.00,VWS V14.01,2014-01-30 01:44:00,
2014-01-29 19:49:00,39.2,15.1,29.83,South,185,4.0,12.0,37,0.00,,CLR,0.00,0.00,VWS V14.01,2014-01-30 01:49:00,
2014-01-29 19:54:00,39.0,14.9,29.83,SSW,210,8.0,12.0,37,0.00,,CLR,0.00,0.00,VWS V14.01,2014-01-30 01:54:00,
2014-01-29 19:59:00,39.1,15.0,29.83,SW,217,6.0,15.0,37,0.00,,CLR,0.00,0.00,VWS V14.01,2014-01-30 01:59:00,
2014-01-29 20:04:00,39.1,15.0,29.83,SW,236,5.0,11.0,37,0.00,,CLR,0.00,0.00,VWS V14.01,2014-01-30 02:04:00,
2014-01-29 20:09:00,39.0,14.9,29.82,SE,145,10.0,13.0,37,0.00,,CLR,0.00,0.00,VWS V14.01,2014-01-30 02:09:00,
2014-01-29 20:14:00,38.9,14.9,29.82,South,172,5.0,14.0,37,0.00,,CLR,0.00,0.00,VWS V14.01,2014-01-30 02:14:00,
2014-01-29 20:19:00,39.0,14.9,29.81,SW,233,11.0,11.0,37,0.00,,CLR,0.00,0.00,VWS V14.01,2014-01-30 02:19:00,
2014-01-29 20:24:00,39.1,15.0,29.81,SSW,212,3.0,12.0,37,0.00,,CLR,0.00,0.00,VWS V14.01,2014-01-30 02:24:00,
2014-01-29 20:29:00,39.0,14.9,29.81,SSE,151,8.0,17.0,37,0.00,,CLR,0.00,0.00,VWS V14.01,2014-01-30 02:29:00,
2014-01-29 20:34:00,39.0,14.9,29.81,South,190,8.0,13.0,37,0.00,,CLR,0.00,0.00,VWS V14.01,2014-01-30 02:34:00,
2014-01-29 20:39:00,38.8,15.4,29.80,SSW,202,10.0,10.0,38,0.00,,CLR,0.00,0.00,VWS V14.01,2014-01-30 02:39:00,
2014-01-29 20:44:00,38.6,15.2,29.80,South,171,4.0,18.0,38,0.00,,CLR,0.00,0.00,VWS V14.01,2014-01-30 02:44:00,
2014-01-29 20:49:00,38.3,14.9,29.80,South,176,11.0,11.0,38,0.00,,CLR,0.00,0.00,VWS V14.01,2014-01-30 02:49:00,
2014-01-29 20:54:00,38.1,14.8,29.79,SSE,161,9.0,10.0,38,0.00,,CLR,0.00,0.00,VWS V14.01,2014-01-30 02:54:00,
2014-01-29 20:59:00,37.9,15.2,29.79,South,191,10.0,12.0,39,0.00,,CLR,0.00,0.00,VWS V14.01,2014-01-30 02:59:00,
2014-01-29 21:04:00,37.7,15.0,29.79,SSE,153,8.0,14.0,39,0.00,,CLR,0.00,0.00,VWS V14.01,2014-01-30 03:04:00,
2014-01-29 21:09:00,37.5,14.8,29.79,SSE,155,13.0,13.0,39,0.00,,CLR,0.00,0.00,VWS V14.01,2014-01-30 03:09:00,
2014-01-29 21:14:00,37.3,15.2,29.80,SW,227,9.0,12.0,40,0.00,,CLR,0.00,0.00,VWS V14.01,2014-01-30 03:14:00,
2014-01-29 21:19:00,37.1,15.0,29.79,SSE,157,12.0,12.0,40,0.00,,CLR,0.00,0.00,VWS V14.01,2014-01-30 03:19:00,
2014-01-29 21:24:00,37.0,14.9,29.79,SSW,194,6.0,10.0,40,0.00,,CLR,0.00,0.00,VWS V14.01,2014-01-30 03:24:00,
2014-01-29 21:29:00,36.8,14.8,29.79,South,183,7.0,12.0,40,0.00,,CLR,0.00,0.00,VWS V14.01,2014-01-30 03:29:00,
2014-01-29 21:34:00,36.6,15.1,29.79,South,187,12.0,12.0,41,0.00,,CLR,0.00,0.00,VWS V14.01,2014-01-30 03:34:00,
2014-01-29 21:39:00,36.6,15.1,29.79,South,186,20.0,20.0,41,0.00,,CLR,0.00,0.00,VWS V14.01,2014-01-30 03:39:00,
2014-01-29 21:44:00,36.5,15.1,29.78,SSE,148,9.0,11.0,41,0.00,,CLR,0.00,0.00,VWS V14.01,2014-01-30 03:44:00,
2014-01-29 21:49:00,36.4,15.0,29.78,South,172,7.0,15.0,41,0.00,,CLR,0.00,0.00,VWS V14.01,2014-01-30 03:49:00,
2014-01-29 21:54:00,36.4,15.0,29.77,SSE,160,15.0,15.0,41,0.00,,CLR,0.00,0.00,VWS V14.01,2014-01-30 03:54:00,
2014-01-29 21:59:00,36.3,14.9,29.77,SSW,200,5.0,13.0,41,0.00,,CLR,0.00,0.00,VWS V14.01,2014-01-30 03:59:00,
2014-01-29 22:04:00,36.3,14.9,29.77,South,176,2.0,10.0,41,0.00,,CLR,0.00,0.00,VWS V14.01,2014-01-30 04:04:00,
2014-01-29 22:09:00,36.2,14.8,29.77,South,179,11.0,12.0,41,0.00,,CLR,0.00,0.00,VWS V14.01,2014-01-30 04:09:00,
2014-01-29 22:14:00,36.2,14.8,29.77,SSW,193,6.0,12.0,41,0.00,,CLR,0.00,0.00,VWS V14.01,2014-01-30 04:14:00,
2014-01-29 22:19:00,36.1,14.7,29.76,SSW,200,11.0,14.0,41,0.00,,CLR,0.00,0.00,VWS V14.01,2014-01-30 04:19:00,
2014-01-29 22:24:00,36.1,14.7,29.76,WSW,257,13.0,14.0,41,0.00,,CLR,0.00,0.00,VWS V14.01,2014-01-30 04:24:00,
2014-01-29 22:29:00,36.1,14.1,29.76,SW,227,6.0,13.0,40,0.00,,CLR,0.00,0.00,VWS V14.01,2014-01-30 04:29:00,
2014-01-29 22:34:00,36.2,14.2,29.75,SSE,161,11.0,11.0,40,0.00,,CLR,0.00,0.00,VWS V14.01,2014-01-30 04:34:00,
2014-01-29 22:39:00,36.4,13.8,29.75,WSW,248,5.0,25.0,39,0.00,,CLR,0.00,0.00,VWS V14.01,2014-01-30 04:39:00,
2014-01-29 22:44:00,36.6,14.0,29.74,South,177,14.0,15.0,39,0.00,,CLR,0.00,0.00,VWS V14.01,2014-01-30 04:44:00,
2014-01-29 22:49:00,36.8,14.2,29.74,SSW,202,9.0,15.0,39,0.00,,CLR,0.00,0.00,VWS V14.01,2014-01-30 04:49:00,
2014-01-29 22:54:00,36.9,13.7,29.74,West,272,9.0,13.0,38,0.00,,CLR,0.00,0.00,VWS V14.01,2014-01-30 04:54:00,
2014-01-29 22:59:00,37.0,13.8,29.73,SSW,202,12.0,12.0,38,0.00,,CLR,0.00,0.00,VWS V14.01,2014-01-30 04:59:00,
2014-01-29 23:01:00,37.1,13.9,29.73,SSW,213,7.0,9.0,38,0.00,,CLR,0.00,0.00,VWS V14.01,2014-01-30 05:01:00,
2014-01-29 23:06:00,37.2,13.3,29.73,SSE,167,11.0,17.0,37,0.00,,CLR,0.00,0.00,VWS V14.01,2014-01-30 05:06:00,
2014-01-29 23:11:00,37.3,13.4,29.73,South,189,14.0,16.0,37,0.00,,CLR,0.00,0.00,VWS V14.01,2014-01-30 05:11:00,
2014-01-29 23:16:00,37.4,13.5,29.72,ESE,121,4.0,18.0,37,0.00,,CLR,0.00,0.00,VWS V14.01,2014-01-30 05:16:00,
2014-01-29 23:21:00,37.6,13.1,29.72,South,175,7.0,14.0,36,0.00,,CLR,0.00,0.00,VWS V14.01,2014-01-30 05:21:00,
2014-01-29 23:26:00,37.5,13.0,29.72,SSW,198,7.0,15.0,36,0.00,,CLR,0.00,0.00,VWS V14.01,2014-01-30 05:26:00,
2014-01-29 23:31:00,37.6,13.1,29.71,SSE,163,8.0,16.0,36,0.00,,CLR,0.00,0.00,VWS V14.01,2014-01-30 05:31:00,
2014-01-29 23:36:00,37.7,13.2,29.71,SSE,159,8.0,9.0,36,0.00,,CLR,0.00,0.00,VWS V14.01,2014-01-30 05:36:00,
2014-01-29 23:41:00,37.5,13.0,29.70,South,184,7.0,17.0,36,0.00,,CLR,0.00,0.00,VWS V14.01,2014-01-30 05:41:00,
2014-01-29 23:46:00,37.5,13.0,29.70,SW,229,4.0,13.0,36,0.00,,CLR,0.00,0.00,VWS V14.01,2014-01-30 05:46:00,
2014-01-29 23:51:00,37.5,13.0,29.70,South,187,15.0,16.0,36,0.00,,CLR,0.00,0.00,VWS V14.01,2014-01-30 05:51:00,
2014-01-29 23:56:00,37.7,12.5,29.69,SW,236,9.0,9.0,35,0.00,,CLR,0.00,0.00,VWS V14.01,2014-01-30 05:56:00,